Find STARLINK-37998

NORAD ID: 799501026 Int'l Des: 2026-146C Constellation: starlink operational

Current View

Loading 3D Globe...

About STARLINK-37998

STARLINK-37998 (NORAD 799501026) is a starlink constellation satellite launched Jun 12, 2026

About STARLINK-37998

Description loading...

Upcoming Passes

Passes for default location (London). Set your location on the main map for personalized predictions.

Altitude History

Loading altitude history...

Two-Line Element Set

1 99999C 2026146C 26176.32270832 .00756530 00000-0 116810-3 0 1768
2 99999 97.2859 21.9776 0011184 279.5330 145.4278 16.03721580 18
Epoch: Jun 25, 2026 • Age: 9 hours